Terug naar catalogus

DELTA 1 DEB

ActiefSSO
NORAD 7850·DEBRIS·🇺🇸 United States

Gelanceerd Jul 23, 1972 vanaf Vandenberg Space Force Base

Loading…

Volgende Passages (komende 24 uur)

TLE

VersSource: Space-Track

Epoch: Sep 14, 2026, 06:59 UTC

1 07850U 72058W   26257.29159135  .00002221  00000-0  38838-3 0  9999
2 07850  98.2862 212.3305 0151719 144.9916 216.1374 14.61635471633207

Volg DELTA 1 DEB in realtime met AllMySat

Download on the App Store